AUA883 LOWW-LGSA

Flight info

Callsign AUA883
Flight time 2h 8m
Altitude 35000
Route ARSIN DCT NALOX DCT OSDUK DCT DOBAR DCT PINDO DCT PIKOS DCT LUSES DCT ATV UP169 MANOK L612 RUSOS
Aircraft A320/M-SDE3FGHIRWY/LB1

Departure

Time 2026-04-26 15:21
Airport Vienna International Airport (LOWW)

Arrival

Time 2026-04-26 17:30
Airport Chania International Airport (LGSA)
Time Latitude Longitude Altitude Speed Heading
2026-04-26 14:52 48.11535 16.56787 620 ft 0 kts 207°
2026-04-26 14:55 48.11535 16.56788 609 ft 0 kts 207°
2026-04-26 15:04 48.11536 16.56788 609 ft 0 kts 207°
2026-04-26 15:12 48.11518 16.56774 620 ft 4 kts 207°
2026-04-26 15:13 48.11493 16.56756 611 ft 4 kts 204°
2026-04-26 15:13 48.11465 16.56771 609 ft 5 kts 132°
2026-04-26 15:13 48.11443 16.56839 611 ft 7 kts 115°
2026-04-26 15:13 48.11424 16.56899 616 ft 6 kts 115°
2026-04-26 15:14 48.11402 16.56963 613 ft 9 kts 117°
2026-04-26 15:14 48.11371 16.57057 621 ft 10 kts 116°
2026-04-26 15:14 48.11338 16.57158 621 ft 12 kts 116°
2026-04-26 15:14 48.11305 16.57260 614 ft 9 kts 118°
2026-04-26 15:15 48.11259 16.57290 612 ft 7 kts 195°
2026-04-26 15:15 48.11213 16.57285 609 ft 8 kts 158°
2026-04-26 15:15 48.11187 16.57341 611 ft 6 kts 116°
2026-04-26 15:15 48.11169 16.57394 611 ft 5 kts 116°
2026-04-26 15:16 48.11148 16.57461 614 ft 8 kts 116°
2026-04-26 15:16 48.11125 16.57530 615 ft 8 kts 115°
2026-04-26 15:16 48.11102 16.57601 614 ft 7 kts 115°
2026-04-26 15:16 48.11069 16.57652 609 ft 9 kts 161°
2026-04-26 15:17 48.11023 16.57632 620 ft 5 kts 205°
2026-04-26 15:17 48.11019 16.57629 617 ft 0 kts 205°
2026-04-26 15:19 48.11016 16.57627 615 ft 2 kts 205°
2026-04-26 15:19 48.10987 16.57606 607 ft 8 kts 206°
2026-04-26 15:19 48.10944 16.57575 615 ft 6 kts 207°
2026-04-26 15:20 48.10922 16.57522 613 ft 6 kts 271°
2026-04-26 15:20 48.10936 16.57470 613 ft 5 kts 295°
2026-04-26 15:20 48.10976 16.57345 614 ft 40 kts 296°
2026-04-26 15:20 48.11202 16.56651 614 ft 105 kts 296°
2026-04-26 15:21 48.11599 16.55430 608 ft 154 kts 295°
2026-04-26 15:21 48.12117 16.53834 813 ft 180 kts 297°
2026-04-26 15:21 48.12361 16.51946 1423 ft 191 kts 268°
2026-04-26 15:21 48.11945 16.50003 2112 ft 201 kts 242°
2026-04-26 15:22 48.11136 16.48292 2680 ft 211 kts 232°
2026-04-26 15:22 48.09832 16.46965 2986 ft 237 kts 208°
2026-04-26 15:22 48.08159 16.46444 3415 ft 256 kts 172°
2026-04-26 15:22 48.06433 16.47168 4114 ft 260 kts 159°
2026-04-26 15:23 48.04686 16.47962 4789 ft 266 kts 169°
2026-04-26 15:23 48.02843 16.48413 5418 ft 269 kts 176°
2026-04-26 15:23 48.01607 16.48619 5925 ft 270 kts 178°
2026-04-26 15:23 47.99002 16.48960 6583 ft 289 kts 184°
2026-04-26 15:24 47.97008 16.48677 7284 ft 287 kts 199°
2026-04-26 15:24 47.95298 16.47851 7925 ft 285 kts 211°
2026-04-26 15:24 47.93540 16.46494 8672 ft 287 kts 214°
2026-04-26 15:24 47.91736 16.45079 9420 ft 291 kts 213°
2026-04-26 15:25 47.89903 16.43740 10124 ft 299 kts 205°
2026-04-26 15:25 47.88538 16.43178 10354 ft 317 kts 192°
2026-04-26 15:25 47.85467 16.43841 10602 ft 358 kts 155°
2026-04-26 15:25 47.83325 16.45936 11042 ft 370 kts 145°
2026-04-26 15:26 47.81261 16.48207 11676 ft 375 kts 143°
2026-04-26 15:26 47.79171 16.50562 12332 ft 379 kts 143°
2026-04-26 15:26 47.77064 16.52947 12988 ft 383 kts 143°
2026-04-26 15:26 47.74925 16.55355 13640 ft 387 kts 143°
2026-04-26 15:27 47.72764 16.57766 14240 ft 391 kts 143°
2026-04-26 15:27 47.70578 16.60187 14821 ft 394 kts 143°
2026-04-26 15:27 47.68364 16.62621 15403 ft 397 kts 143°
2026-04-26 15:27 47.66140 16.65062 15989 ft 399 kts 143°
2026-04-26 15:28 47.63900 16.67518 16568 ft 402 kts 143°
2026-04-26 15:28 47.61639 16.69989 17136 ft 405 kts 143°
2026-04-26 15:28 47.59331 16.72400 17695 ft 408 kts 149°
2026-04-26 15:28 47.56833 16.74436 18258 ft 411 kts 152°
2026-04-26 15:29 47.54318 16.76471 18768 ft 414 kts 151°
2026-04-26 15:29 47.51784 16.78528 19263 ft 417 kts 151°
2026-04-26 15:29 47.46674 16.82677 20241 ft 422 kts 152°
2026-04-26 15:30 47.41484 16.86865 21225 ft 428 kts 152°
2026-04-26 15:30 47.38860 16.88977 21651 ft 432 kts 152°
2026-04-26 15:30 47.36223 16.91098 22171 ft 433 kts 152°
2026-04-26 15:31 47.33571 16.93223 22655 ft 435 kts 152°
2026-04-26 15:31 47.28226 16.97505 23553 ft 440 kts 153°
2026-04-26 15:31 47.25525 16.99659 23953 ft 442 kts 153°
2026-04-26 15:32 47.21892 17.02551 24433 ft 445 kts 153°
2026-04-26 15:32 47.17355 17.06166 25028 ft 448 kts 153°
2026-04-26 15:32 47.14613 17.08351 25358 ft 449 kts 153°
2026-04-26 15:33 47.11826 17.10570 25759 ft 449 kts 153°
2026-04-26 15:33 47.09073 17.12759 26099 ft 451 kts 153°
2026-04-26 15:33 47.06342 17.14927 26399 ft 454 kts 153°
2026-04-26 15:33 47.03561 17.17132 26716 ft 455 kts 153°
2026-04-26 15:34 47.00766 17.19342 27039 ft 457 kts 153°
2026-04-26 15:34 46.97962 17.21555 27354 ft 459 kts 154°
2026-04-26 15:34 46.95145 17.23773 27659 ft 461 kts 154°
2026-04-26 15:34 46.92284 17.26026 27967 ft 462 kts 154°
2026-04-26 15:35 46.89448 17.28259 28257 ft 464 kts 154°
2026-04-26 15:35 46.86605 17.30492 28582 ft 464 kts 154°
2026-04-26 15:35 46.83757 17.32731 28879 ft 466 kts 154°
2026-04-26 15:35 46.80901 17.34976 29150 ft 467 kts 154°
2026-04-26 15:36 46.78031 17.37226 29394 ft 469 kts 154°
2026-04-26 15:36 46.75148 17.39482 29629 ft 471 kts 154°
2026-04-26 15:36 46.72255 17.41738 29858 ft 473 kts 154°
2026-04-26 15:36 46.69354 17.43994 30112 ft 474 kts 154°
2026-04-26 15:37 46.66437 17.46267 30306 ft 475 kts 154°
2026-04-26 15:37 46.63523 17.48538 30524 ft 476 kts 154°
2026-04-26 15:37 46.60604 17.50810 30771 ft 475 kts 154°
2026-04-26 15:37 46.57697 17.53071 31065 ft 473 kts 154°
2026-04-26 15:38 46.54798 17.55325 31343 ft 472 kts 154°
2026-04-26 15:38 46.51899 17.57572 31609 ft 471 kts 154°
2026-04-26 15:38 46.49007 17.59811 31885 ft 471 kts 154°
2026-04-26 15:38 46.46154 17.62016 32115 ft 471 kts 154°
2026-04-26 15:39 46.43225 17.64277 32365 ft 471 kts 154°
2026-04-26 15:39 46.40381 17.66475 32617 ft 469 kts 154°
2026-04-26 15:39 46.37467 17.68725 32915 ft 468 kts 154°
2026-04-26 15:39 46.36536 17.69442 33007 ft 467 kts 154°
2026-04-26 15:40 46.31737 17.73129 33468 ft 465 kts 154°
2026-04-26 15:40 46.29841 17.74581 33642 ft 465 kts 154°
2026-04-26 15:40 46.26059 17.77468 34000 ft 464 kts 154°
2026-04-26 15:40 46.24135 17.78935 34170 ft 463 kts 154°
2026-04-26 15:41 46.21294 17.81108 34400 ft 462 kts 154°
2026-04-26 15:41 46.18450 17.83284 34597 ft 462 kts 154°
2026-04-26 15:41 46.14694 17.86153 34892 ft 461 kts 154°
2026-04-26 15:41 46.11855 17.88313 35090 ft 461 kts 154°
2026-04-26 15:42 46.07103 17.91926 35176 ft 461 kts 154°
2026-04-26 15:42 46.01434 17.96235 35179 ft 461 kts 154°
2026-04-26 15:43 45.95770 18.00534 35183 ft 460 kts 154°
2026-04-26 15:44 45.87272 18.06948 35184 ft 459 kts 154°
2026-04-26 15:44 45.78782 18.13290 35173 ft 458 kts 157°
2026-04-26 15:45 45.69939 18.18413 35145 ft 457 kts 160°
2026-04-26 15:46 45.61089 18.23479 35147 ft 457 kts 160°
2026-04-26 15:46 45.56186 18.26267 35142 ft 456 kts 160°
2026-04-26 15:47 45.46338 18.31854 35143 ft 456 kts 160°
2026-04-26 15:48 45.40441 18.35201 35144 ft 456 kts 160°
2026-04-26 15:48 45.34581 18.38523 35147 ft 456 kts 160°
2026-04-26 15:49 45.28641 18.41880 35146 ft 456 kts 160°
2026-04-26 15:49 45.22779 18.45170 35144 ft 456 kts 160°
2026-04-26 15:50 45.16886 18.48475 35144 ft 456 kts 160°
2026-04-26 15:50 45.10992 18.51785 35142 ft 456 kts 160°
2026-04-26 15:51 45.05095 18.55084 35146 ft 455 kts 160°
2026-04-26 15:51 44.99193 18.58372 35144 ft 456 kts 160°
2026-04-26 15:52 44.93284 18.61656 35149 ft 457 kts 160°
2026-04-26 15:52 44.87376 18.64939 35142 ft 456 kts 160°
2026-04-26 15:53 44.81484 18.68213 35132 ft 455 kts 160°
2026-04-26 15:53 44.75571 18.71485 35140 ft 457 kts 160°
2026-04-26 15:54 44.69651 18.74756 35139 ft 457 kts 160°
2026-04-26 15:54 44.63728 18.78018 35137 ft 457 kts 160°
2026-04-26 15:55 44.57802 18.81270 35117 ft 457 kts 160°
2026-04-26 15:55 44.51872 18.84517 35119 ft 458 kts 160°
2026-04-26 15:56 44.45937 18.87763 35125 ft 458 kts 160°
2026-04-26 15:56 44.39998 18.91008 35118 ft 458 kts 160°
2026-04-26 15:57 44.34054 18.94248 35127 ft 459 kts 160°
2026-04-26 15:57 44.28104 18.97474 35123 ft 459 kts 160°
2026-04-26 15:58 44.22152 19.00694 35115 ft 459 kts 160°
2026-04-26 15:58 44.16205 19.03916 35108 ft 459 kts 160°
2026-04-26 15:59 44.10242 19.07138 35112 ft 460 kts 160°
2026-04-26 15:59 44.04277 19.10344 35119 ft 459 kts 160°
2026-04-26 16:00 43.98324 19.13553 35113 ft 459 kts 160°
2026-04-26 16:00 43.92361 19.16761 35105 ft 460 kts 160°
2026-04-26 16:01 43.86396 19.19956 35099 ft 459 kts 160°
2026-04-26 16:01 43.80432 19.23133 35104 ft 459 kts 160°
2026-04-26 16:02 43.74469 19.26318 35113 ft 459 kts 160°
2026-04-26 16:02 43.68508 19.29487 35087 ft 459 kts 160°
2026-04-26 16:03 43.62546 19.32639 35107 ft 459 kts 160°
2026-04-26 16:03 43.56581 19.35787 35091 ft 459 kts 160°
2026-04-26 16:04 43.50618 19.38949 35108 ft 459 kts 160°
2026-04-26 16:04 43.44645 19.42107 35103 ft 459 kts 160°
2026-04-26 16:05 43.38678 19.45249 35098 ft 460 kts 160°
2026-04-26 16:05 43.32700 19.48394 35100 ft 460 kts 160°
2026-04-26 16:06 43.26722 19.51535 35098 ft 461 kts 161°
2026-04-26 16:06 43.20768 19.54641 35098 ft 461 kts 161°
2026-04-26 16:07 43.14737 19.57785 35098 ft 461 kts 161°
2026-04-26 16:07 43.08747 19.60896 35096 ft 460 kts 161°
2026-04-26 16:08 43.02761 19.64002 35092 ft 460 kts 161°
2026-04-26 16:08 42.96770 19.67114 35090 ft 460 kts 161°
2026-04-26 16:09 42.90780 19.70211 35090 ft 461 kts 161°
2026-04-26 16:09 42.84788 19.73304 35088 ft 461 kts 161°
2026-04-26 16:10 42.78835 19.76381 35080 ft 461 kts 161°
2026-04-26 16:10 42.72846 19.79460 35081 ft 460 kts 161°
2026-04-26 16:11 42.66803 19.82553 35074 ft 461 kts 161°
2026-04-26 16:11 42.60806 19.85620 35081 ft 461 kts 161°
2026-04-26 16:12 42.54799 19.88688 35082 ft 461 kts 161°
2026-04-26 16:12 42.45788 19.93277 35058 ft 461 kts 161°
2026-04-26 16:13 42.39777 19.96333 35068 ft 462 kts 161°
2026-04-26 16:13 42.33763 19.99385 35065 ft 462 kts 161°
2026-04-26 16:14 42.27746 20.02436 35061 ft 462 kts 161°
2026-04-26 16:15 42.18714 20.07001 35063 ft 462 kts 162°
2026-04-26 16:15 42.12688 20.10027 35066 ft 462 kts 162°
2026-04-26 16:16 42.03652 20.14586 35064 ft 463 kts 162°
2026-04-26 16:16 41.97607 20.17617 35067 ft 464 kts 162°
2026-04-26 16:17 41.91561 20.20631 35078 ft 464 kts 162°
2026-04-26 16:17 41.85521 20.23640 35079 ft 463 kts 162°
2026-04-26 16:18 41.76501 20.28132 35076 ft 463 kts 162°
2026-04-26 16:19 41.67450 20.32626 35068 ft 462 kts 162°
2026-04-26 16:20 41.58404 20.37114 35056 ft 462 kts 162°
2026-04-26 16:20 41.49359 20.41572 35060 ft 462 kts 162°
2026-04-26 16:21 41.43322 20.44538 35059 ft 462 kts 162°
2026-04-26 16:21 41.37292 20.47496 35048 ft 462 kts 162°
2026-04-26 16:22 41.31260 20.50484 35048 ft 463 kts 161°
2026-04-26 16:22 41.25287 20.53727 35049 ft 464 kts 160°
2026-04-26 16:23 41.19351 20.57076 35048 ft 464 kts 160°
2026-04-26 16:23 41.13393 20.60374 35036 ft 463 kts 160°
2026-04-26 16:24 41.08403 20.63085 35054 ft 462 kts 161°
2026-04-26 16:24 41.02445 20.66303 35052 ft 463 kts 161°
2026-04-26 16:25 40.96523 20.69506 35049 ft 463 kts 161°
2026-04-26 16:25 40.90559 20.72741 35044 ft 463 kts 160°
2026-04-26 16:26 40.84599 20.75973 35030 ft 463 kts 161°
2026-04-26 16:26 40.78639 20.79189 35027 ft 463 kts 161°
2026-04-26 16:27 40.72672 20.82399 35027 ft 463 kts 161°
2026-04-26 16:27 40.66702 20.85616 35029 ft 464 kts 161°
2026-04-26 16:28 40.60729 20.88820 35031 ft 463 kts 161°
2026-04-26 16:28 40.54752 20.92016 35032 ft 464 kts 161°
2026-04-26 16:29 40.48845 20.95445 35036 ft 467 kts 152°
2026-04-26 16:29 40.43678 21.00674 35033 ft 471 kts 141°
2026-04-26 16:30 40.38764 21.06365 35040 ft 471 kts 141°
2026-04-26 16:30 40.33832 21.12025 35038 ft 471 kts 141°
2026-04-26 16:31 40.28893 21.17681 35029 ft 472 kts 141°
2026-04-26 16:31 40.23938 21.23353 35029 ft 473 kts 141°
2026-04-26 16:32 40.21464 21.26187 35032 ft 473 kts 141°
2026-04-26 16:32 40.21397 21.26264 35037 ft 473 kts 141°
2026-04-26 16:33 40.17018 21.31285 35031 ft 472 kts 141°
2026-04-26 16:33 40.12081 21.36927 35025 ft 471 kts 141°
2026-04-26 16:34 40.07132 21.42545 35015 ft 471 kts 141°
2026-04-26 16:34 40.02184 21.48160 35019 ft 471 kts 141°
2026-04-26 16:35 39.97239 21.53768 35012 ft 471 kts 141°
2026-04-26 16:35 39.92445 21.59611 35014 ft 473 kts 137°
2026-04-26 16:36 39.87922 21.65825 35013 ft 472 kts 135°
2026-04-26 16:36 39.83437 21.72068 35017 ft 472 kts 135°
2026-04-26 16:37 39.78880 21.78211 35011 ft 472 kts 136°
2026-04-26 16:37 39.74282 21.84295 35003 ft 473 kts 136°
2026-04-26 16:38 39.69667 21.90388 35009 ft 473 kts 136°
2026-04-26 16:38 39.65064 21.96491 35005 ft 473 kts 136°
2026-04-26 16:39 39.60459 22.02590 35008 ft 472 kts 136°
2026-04-26 16:39 39.55867 22.08664 35008 ft 471 kts 136°
2026-04-26 16:40 39.51272 22.14722 35010 ft 472 kts 136°
2026-04-26 16:40 39.46668 22.20778 35010 ft 472 kts 136°
2026-04-26 16:41 39.42056 22.26833 35013 ft 472 kts 136°
2026-04-26 16:41 39.37446 22.32879 35013 ft 472 kts 136°
2026-04-26 16:42 39.32834 22.38913 35013 ft 472 kts 136°
2026-04-26 16:42 39.27842 22.44355 35019 ft 469 kts 144°
2026-04-26 16:43 39.22676 22.49537 35024 ft 471 kts 144°
2026-04-26 16:43 39.17499 22.54717 34995 ft 471 kts 144°
2026-04-26 16:44 39.12316 22.59891 34991 ft 471 kts 144°
2026-04-26 16:44 39.07137 22.65050 34988 ft 471 kts 144°
2026-04-26 16:45 39.01955 22.70206 34999 ft 470 kts 144°
2026-04-26 16:45 38.96780 22.75350 35008 ft 470 kts 144°
2026-04-26 16:46 38.91602 22.80495 35019 ft 471 kts 143°
2026-04-26 16:46 38.86406 22.85643 35027 ft 472 kts 143°
2026-04-26 16:47 38.81202 22.90784 35017 ft 472 kts 143°
2026-04-26 16:47 38.75999 22.95921 35027 ft 472 kts 143°
2026-04-26 16:48 38.70797 23.01040 35027 ft 471 kts 143°
2026-04-26 16:48 38.65594 23.06148 35027 ft 471 kts 143°
2026-04-26 16:49 38.60430 23.11222 35032 ft 471 kts 143°
2026-04-26 16:49 38.55213 23.16333 35027 ft 473 kts 143°
2026-04-26 16:50 38.49976 23.21435 35024 ft 474 kts 143°
2026-04-26 16:50 38.44732 23.26536 35030 ft 474 kts 143°
2026-04-26 16:51 38.39488 23.31640 35025 ft 474 kts 143°
2026-04-26 16:51 38.34245 23.36743 35025 ft 474 kts 143°
2026-04-26 16:52 38.29845 23.41019 35027 ft 474 kts 143°
2026-04-26 16:52 38.23733 23.46925 35010 ft 476 kts 143°
2026-04-26 16:53 38.18456 23.52016 35006 ft 476 kts 143°
2026-04-26 16:53 38.13176 23.57116 35002 ft 476 kts 143°
2026-04-26 16:54 38.07896 23.62202 35003 ft 476 kts 143°
2026-04-26 16:54 38.02619 23.67278 35002 ft 476 kts 143°
2026-04-26 16:55 37.97330 23.72346 35007 ft 476 kts 143°
2026-04-26 16:55 37.92001 23.77318 35028 ft 476 kts 149°
2026-04-26 16:56 37.85961 23.80680 35031 ft 474 kts 167°
2026-04-26 16:56 37.82731 23.81464 35031 ft 472 kts 175°
2026-04-26 16:57 37.76207 23.82497 35033 ft 473 kts 175°
2026-04-26 16:57 37.66403 23.84062 35036 ft 473 kts 174°
2026-04-26 16:58 37.62031 23.84767 35040 ft 474 kts 174°
2026-04-26 16:59 37.50059 23.86680 35036 ft 474 kts 174°
2026-04-26 17:00 37.36974 23.88771 35039 ft 474 kts 174°
2026-04-26 17:00 37.27154 23.90337 35047 ft 474 kts 174°
2026-04-26 17:01 37.20601 23.91378 35035 ft 474 kts 174°
2026-04-26 17:01 37.14053 23.92411 35041 ft 474 kts 174°
2026-04-26 17:02 37.07502 23.93444 35039 ft 474 kts 174°
2026-04-26 17:02 37.00946 23.94483 35041 ft 475 kts 173°
2026-04-26 17:03 36.94389 23.95521 35041 ft 475 kts 174°
2026-04-26 17:03 36.87828 23.96557 34864 ft 476 kts 174°
2026-04-26 17:04 36.84548 23.97069 34347 ft 473 kts 173°
2026-04-26 17:04 36.81283 23.97578 33707 ft 473 kts 173°
2026-04-26 17:04 36.78022 23.98086 33044 ft 471 kts 173°
2026-04-26 17:04 36.74784 23.98590 32391 ft 467 kts 173°
2026-04-26 17:05 36.71589 23.99090 31753 ft 457 kts 173°
2026-04-26 17:05 36.68471 23.99581 31128 ft 446 kts 173°
2026-04-26 17:05 36.65427 24.00061 30516 ft 436 kts 173°
2026-04-26 17:05 36.62447 24.00528 29884 ft 426 kts 173°
2026-04-26 17:06 36.59535 24.00980 29191 ft 418 kts 173°
2026-04-26 17:06 36.56686 24.01424 28515 ft 410 kts 173°
2026-04-26 17:06 36.53883 24.01860 27848 ft 402 kts 173°
2026-04-26 17:06 36.52013 24.02152 27410 ft 397 kts 173°
2026-04-26 17:07 36.49296 24.02577 26769 ft 390 kts 173°
2026-04-26 17:07 36.46623 24.02994 26142 ft 384 kts 173°
2026-04-26 17:07 36.44029 24.03399 25538 ft 377 kts 173°
2026-04-26 17:07 36.41410 24.03805 24938 ft 371 kts 173°
2026-04-26 17:08 36.38870 24.03980 24458 ft 360 kts 187°
2026-04-26 17:08 36.36481 24.03248 24007 ft 351 kts 207°
2026-04-26 17:08 36.34425 24.01674 23538 ft 346 kts 225°
2026-04-26 17:08 36.32899 23.99478 23108 ft 337 kts 243°
2026-04-26 17:09 36.31953 23.96831 22704 ft 327 kts 260°
2026-04-26 17:09 36.31694 23.95014 22452 ft 320 kts 271°
2026-04-26 17:09 36.32003 23.91472 22577 ft 311 kts 291°
2026-04-26 17:09 36.32872 23.89041 22680 ft 309 kts 306°
2026-04-26 17:10 36.34280 23.87086 22398 ft 302 kts 326°
2026-04-26 17:10 36.36120 23.85912 22148 ft 297 kts 346°
2026-04-26 17:10 36.38190 23.85660 22044 ft 310 kts
2026-04-26 17:10 36.40327 23.86424 21955 ft 335 kts 26°
2026-04-26 17:11 36.42162 23.88325 21694 ft 355 kts 51°
2026-04-26 17:11 36.43196 23.91138 21442 ft 367 kts 77°
2026-04-26 17:11 36.43146 23.94320 21189 ft 376 kts 101°
2026-04-26 17:11 36.42386 23.97443 20932 ft 379 kts 105°
2026-04-26 17:12 36.40537 24.03558 20429 ft 380 kts 115°
2026-04-26 17:12 36.39095 24.06311 20182 ft 381 kts 126°
2026-04-26 17:13 36.35898 24.11525 19710 ft 378 kts 124°
2026-04-26 17:13 36.34336 24.14139 19462 ft 377 kts 123°
2026-04-26 17:13 36.31238 24.19346 18997 ft 374 kts 123°
2026-04-26 17:14 36.29692 24.21933 18763 ft 373 kts 123°
2026-04-26 17:14 36.26600 24.27068 18292 ft 370 kts 124°
2026-04-26 17:14 36.25060 24.29620 18027 ft 369 kts 123°
2026-04-26 17:15 36.21657 24.34329 17430 ft 370 kts 142°
2026-04-26 17:15 36.19426 24.35911 17040 ft 370 kts 156°
2026-04-26 17:15 36.16971 24.36840 16663 ft 369 kts 165°
2026-04-26 17:16 36.14482 24.37597 16284 ft 367 kts 165°
2026-04-26 17:16 36.12006 24.38348 15849 ft 366 kts 165°
2026-04-26 17:16 36.09547 24.39091 15364 ft 362 kts 165°
2026-04-26 17:16 36.07107 24.39826 14886 ft 359 kts 165°
2026-04-26 17:17 36.04689 24.40555 14399 ft 357 kts 165°
2026-04-26 17:17 36.02286 24.41277 13929 ft 354 kts 165°
2026-04-26 17:17 35.99897 24.41995 13414 ft 351 kts 165°
2026-04-26 17:17 35.97538 24.42705 12950 ft 348 kts 165°
2026-04-26 17:18 35.95201 24.43411 12517 ft 344 kts 165°
2026-04-26 17:18 35.92889 24.44111 12092 ft 340 kts 165°
2026-04-26 17:18 35.90605 24.44806 11615 ft 336 kts 165°
2026-04-26 17:18 35.88344 24.45495 11123 ft 332 kts 165°
2026-04-26 17:19 35.83914 24.46854 10162 ft 323 kts 165°
2026-04-26 17:19 35.81770 24.47514 9708 ft 311 kts 165°
2026-04-26 17:19 35.79713 24.48144 9310 ft 301 kts 165°
2026-04-26 17:20 35.77681 24.48680 8915 ft 297 kts 172°
2026-04-26 17:20 35.76326 24.48859 8575 ft 295 kts 174°
2026-04-26 17:20 35.73635 24.49124 7906 ft 284 kts 175°
2026-04-26 17:20 35.71690 24.49305 7407 ft 278 kts 175°
2026-04-26 17:21 35.69767 24.49484 6922 ft 275 kts 175°
2026-04-26 17:21 35.67865 24.49661 6429 ft 273 kts 175°
2026-04-26 17:21 35.65970 24.49838 5938 ft 273 kts 175°
2026-04-26 17:21 35.64082 24.50017 5490 ft 271 kts 175°
2026-04-26 17:22 35.62196 24.50200 5119 ft 272 kts 175°
2026-04-26 17:22 35.60323 24.50386 4579 ft 268 kts 175°
2026-04-26 17:22 35.58470 24.50431 4131 ft 266 kts 189°
2026-04-26 17:22 35.56739 24.49678 4016 ft 262 kts 214°
2026-04-26 17:23 35.55349 24.48370 4022 ft 243 kts 221°
2026-04-26 17:23 35.54092 24.47129 4023 ft 227 kts 221°
2026-04-26 17:23 35.52894 24.45944 4028 ft 216 kts 221°
2026-04-26 17:23 35.51715 24.44777 4032 ft 214 kts 221°
2026-04-26 17:24 35.50571 24.43643 4033 ft 214 kts 221°
2026-04-26 17:24 35.49415 24.42496 4033 ft 213 kts 221°
2026-04-26 17:24 35.48265 24.41346 4033 ft 213 kts 224°
2026-04-26 17:24 35.47300 24.39962 4033 ft 210 kts 242°
2026-04-26 17:25 35.46695 24.38346 3956 ft 208 kts 257°
2026-04-26 17:25 35.46467 24.36635 3698 ft 200 kts 271°
2026-04-26 17:25 35.46601 24.34974 3433 ft 192 kts 285°
2026-04-26 17:25 35.47016 24.33484 3205 ft 182 kts 294°
2026-04-26 17:26 35.47481 24.32084 2991 ft 172 kts 294°
2026-04-26 17:26 35.47914 24.30771 2802 ft 155 kts 294°
2026-04-26 17:26 35.48303 24.29586 2610 ft 146 kts 294°
2026-04-26 17:26 35.48677 24.28452 2438 ft 142 kts 294°
2026-04-26 17:27 35.49048 24.27339 2269 ft 140 kts 294°
2026-04-26 17:27 35.49414 24.26242 2088 ft 139 kts 293°
2026-04-26 17:27 35.49776 24.25148 1902 ft 138 kts 293°
2026-04-26 17:27 35.50135 24.24061 1718 ft 137 kts 293°
2026-04-26 17:28 35.50493 24.22980 1535 ft 137 kts 292°
2026-04-26 17:28 35.50865 24.21906 1356 ft 137 kts 294°
2026-04-26 17:28 35.51258 24.20837 1193 ft 137 kts 294°
2026-04-26 17:28 35.51629 24.19754 1033 ft 138 kts 291°
2026-04-26 17:29 35.51976 24.18660 878 ft 138 kts 290°
2026-04-26 17:29 35.52205 24.17924 733 ft 139 kts 291°
2026-04-26 17:29 35.52691 24.16448 515 ft 137 kts 291°
2026-04-26 17:29 35.53005 24.15486 486 ft 100 kts 292°
2026-04-26 17:30 35.53198 24.14892 488 ft 50 kts 291°
2026-04-26 17:30 35.53302 24.14573 495 ft 37 kts 292°
2026-04-26 17:30 35.53387 24.14315 498 ft 21 kts 292°
2026-04-26 17:30 35.53448 24.14269 497 ft 10 kts 23°
2026-04-26 17:31 35.53506 24.14301 490 ft 9 kts 24°
2026-04-26 17:31 35.53560 24.14324 494 ft 8 kts 17°
2026-04-26 17:31 35.53606 24.14344 493 ft 6 kts 20°
2026-04-26 17:31 35.53660 24.14368 498 ft 8 kts
2026-04-26 17:32 35.53691 24.14326 494 ft 9 kts 292°
2026-04-26 17:32 35.53714 24.14255 495 ft 8 kts 292°
2026-04-26 17:32 35.53735 24.14193 497 ft 10 kts 292°
2026-04-26 17:32 35.53763 24.14108 495 ft 10 kts 291°
2026-04-26 17:33 35.53787 24.14035 493 ft 8 kts 292°
2026-04-26 17:33 35.53808 24.13985 495 ft 5 kts 317°
2026-04-26 17:33 35.53829 24.13989 496 ft 3 kts 22°
2026-04-26 17:34 35.53884 24.14016 496 ft 0 kts 20°